Location: Acts Church of Fort Worth
(32.6786°N, 97.2668°W)
Time: 09:34:10
(UTC+00:00)

Aurora 2 Rocket - Pass Details

Date: 18 January 2026
Orbit: 385 x 1537 km, 25.0° (Epoch: 10 February)

Event Time Altitude Azimuth Distance (km) Brightness Sun altitude
Rises 00:52:14 0° 253° (WSW) 2,317 7.6 -13.5°
Reaches altitude 10° 00:55:09 10° 224° (SW) 1,398 5.3 -14.1°
Maximum altitude 00:56:45 13° 192° (SSW) 1,210 4.4 -14.4°
Drops below altitude 10° 00:58:20 10° 161° (SSE) 1,396 4.4 -14.8°
Enters shadow 00:59:35 - 145° (SE) 1,733 4.7 -15.0°
